contact:dominique.lefevre@mio.osupytheas.fr, maurice.libes@osupytheas.fr, didier.mallarino@osupytheas.fr
Project:EMSO http://www.emso-fr.org/EMSO-France
Depth: 2436.0 m
Title:EMSO Ligure Ouest : Data MII capteur AQUADOPP
Date,Latitude,Longitude,X_East,Y_North,Z_Up,Amplitude_X,Amplitude_Y,Amplitude_Z,Batterie,SoundSpeed,Heading,Pitch,Roll,Pressure,TIS,Speed,Direction
, degrees North, degrees East, m.s-1, m.s-1,m.s-1, 1, 1, 1, Volt, m.s-1, degree, degree, degree, dbar, degree_C, m.s-1, degree
2020-05-29T00:04:03,42.805,6.029,0.02,0.002,-0.04,102.0,106.0,101.0,13.4,1505.3,323.5,-0.7,1.8,2470.407,13.31,0.02,84.3
2020-05-29T00:07:03,42.805,6.029,0.012,0.006,-0.043,104.0,104.0,101.0,13.3,1505.3,323.2,-0.7,1.8,2470.427,13.32,0.013,63.4
2020-05-29T00:10:03,42.805,6.029,-0.033,0.015,-0.025,103.0,103.0,101.0,13.4,1505.3,325.1,-0.7,1.8,2470.399,13.33,0.036,294.4
2020-05-29T00:13:03,42.805,6.029,0.004,0.005,-0.052,103.0,104.0,101.0,13.4,1505.3,325.7,-0.7,1.8,2470.416,13.33,0.006,38.7
2020-05-29T00:16:03,42.805,6.029,-0.028,0.003,-0.08,102.0,106.0,101.0,13.4,1505.3,325.5,-0.7,1.8,2470.458,13.33,0.028,276.1
2020-05-29T00:19:03,42.805,6.029,-0.042,0.016,-0.089,103.0,105.0,101.0,13.3,1505.3,323.4,-0.7,1.8,2470.404,13.33,0.044,290.9
2020-05-29T00:22:03,42.805,6.029,0.012,0.015,-0.014,102.0,105.0,101.0,13.3,1505.3,323.0,-0.7,1.9,2470.384,13.33,0.019,38.7
2020-05-29T00:25:03,42.805,6.029,0.006,0.02,-0.042,105.0,104.0,100.0,13.4,1505.3,323.6,-0.7,1.8,2470.373,13.33,0.02,16.7
2020-05-29T00:28:03,42.805,6.029,-0.011,0.009,-0.021,103.0,107.0,101.0,13.4,1505.3,323.6,-0.7,1.9,2470.384,13.33,0.014,309.3
2020-05-29T00:31:03,42.805,6.029,0.041,0.003,0.005,104.0,104.0,101.0,13.4,1505.3,323.9,-0.7,1.8,2470.414,13.33,0.041,85.8
2020-05-29T00:34:03,42.805,6.029,0.033,-0.009,-0.019,103.0,104.0,102.0,13.4,1505.4,326.7,-0.7,1.8,2470.363,13.34,0.034,105.3
2020-05-29T00:37:03,42.805,6.029,0.031,0.004,-0.04,101.0,107.0,101.0,13.4,1505.4,327.4,-0.7,1.8,2470.349,13.34,0.031,82.7
2020-05-29T00:40:03,42.805,6.029,0.001,0.014,0.02,103.0,106.0,102.0,13.4,1505.4,326.5,-0.7,1.8,2470.356,13.34,0.014,4.1
2020-05-29T00:43:03,42.805,6.029,0.016,0.012,-0.019,102.0,105.0,103.0,13.4,1505.4,325.9,-0.7,1.8,2470.384,13.34,0.02,53.1
2020-05-29T00:46:03,42.805,6.029,0.016,-0.002,-0.009,104.0,104.0,102.0,13.4,1505.4,326.6,-0.7,1.8,2470.405,13.34,0.016,97.1
2020-05-29T00:49:03,42.805,6.029,0.034,0.008,0.011,102.0,106.0,101.0,13.3,1505.4,327.0,-0.7,1.8,2470.384,13.34,0.034,76.8
2020-05-29T00:52:03,42.805,6.029,0.019,0.0,-0.032,103.0,106.0,100.0,13.4,1505.4,323.5,-0.7,1.8,2470.369,13.34,0.019,90.0
2020-05-29T00:55:03,42.805,6.029,0.007,-0.005,-0.033,103.0,107.0,101.0,13.4,1505.4,323.4,-0.7,1.8,2470.381,13.34,0.008,125.5
2020-05-29T00:58:03,42.805,6.029,0.004,0.029,0.01,102.0,106.0,101.0,13.3,1505.4,323.6,-0.7,1.9,2470.394,13.34,0.029,7.8
2020-05-29T01:04:03,42.805,6.029,-0.034,0.006,-0.028,105.0,108.0,102.0,13.4,1505.3,327.7,-0.7,1.9,2470.394,13.32,0.034,280.0
2020-05-29T01:07:03,42.805,6.029,0.04,0.008,0.012,104.0,105.0,100.0,13.4,1505.3,327.5,-0.7,1.8,2470.423,13.32,0.04,78.7
2020-05-29T01:10:03,42.805,6.029,0.02,0.018,-0.002,103.0,105.0,100.0,13.3,1505.3,326.0,-0.7,1.9,2470.386,13.33,0.026,48.0
2020-05-29T01:13:03,42.805,6.029,0.025,0.004,-0.021,102.0,107.0,100.0,13.4,1505.3,328.4,-0.7,1.8,2470.423,13.33,0.025,80.9
2020-05-29T01:16:03,42.805,6.029,0.011,-0.001,-0.038,102.0,117.0,102.0,13.4,1505.3,324.5,-0.7,1.8,2470.407,13.33,0.011,95.2
2020-05-29T01:19:03,42.805,6.029,0.026,0.005,-0.009,104.0,107.0,101.0,13.4,1505.4,326.1,-0.7,1.8,2470.384,13.34,0.026,79.1
2020-05-29T01:22:03,42.805,6.029,0.014,-0.016,0.011,103.0,105.0,100.0,13.3,1505.4,323.5,-0.7,1.8,2470.395,13.34,0.021,138.8
2020-05-29T01:25:03,42.805,6.029,0.014,0.0,-0.005,103.0,106.0,101.0,13.4,1505.4,323.2,-0.7,1.8,2470.368,13.34,0.014,90.0
2020-05-29T01:28:03,42.805,6.029,0.008,0.009,-0.02,102.0,106.0,101.0,13.4,1505.4,326.8,-0.7,1.8,2470.385,13.34,0.012,41.6
2020-05-29T01:31:03,42.805,6.029,0.032,-0.012,-0.024,102.0,105.0,102.0,13.3,1505.4,324.1,-0.7,1.8,2470.37,13.34,0.034,110.6
2020-05-29T01:34:03,42.805,6.029,-0.018,-0.001,-0.029,104.0,106.0,100.0,13.4,1505.4,326.4,-0.7,1.8,2470.394,13.34,0.018,266.8
2020-05-29T01:37:03,42.805,6.029,0.013,-0.015,-0.037,100.0,106.0,100.0,13.3,1505.4,324.3,-0.7,1.8,2470.415,13.34,0.019,139.1
2020-05-29T01:40:03,42.805,6.029,0.003,-0.004,-0.025,103.0,104.0,100.0,13.4,1505.4,328.0,-0.7,1.8,2470.391,13.34,0.005,143.1
2020-05-29T01:43:03,42.805,6.029,0.029,0.005,-0.021,102.0,105.0,101.0,13.4,1505.4,324.7,-0.7,1.8,2470.38,13.34,0.029,80.2
2020-05-29T01:46:03,42.805,6.029,0.041,-0.008,-0.02,104.0,105.0,102.0,13.3,1505.4,324.4,-0.7,1.8,2470.328,13.34,0.041,101.0
2020-05-29T01:49:03,42.805,6.029,0.034,-0.008,0.0,103.0,107.0,101.0,13.3,1505.4,328.2,-0.7,1.8,2470.4,13.34,0.034,103.2
2020-05-29T01:52:03,42.805,6.029,0.019,0.014,-0.003,101.0,104.0,101.0,13.4,1505.4,325.6,-0.7,1.8,2470.354,13.34,0.023,53.6
2020-05-29T01:55:03,42.805,6.029,0.04,0.004,0.027,102.0,107.0,101.0,13.4,1505.4,323.9,-0.7,1.8,2470.323,13.34,0.04,84.3
2020-05-29T01:58:03,42.805,6.029,0.022,0.003,-0.042,104.0,104.0,101.0,13.4,1505.4,327.7,-0.7,1.8,2470.365,13.34,0.022,82.2
2020-05-29T02:04:03,42.805,6.029,0.017,-0.004,-0.03,103.0,105.0,99.0,13.4,1505.3,323.8,-0.7,1.8,2470.427,13.32,0.017,103.2
2020-05-29T02:07:03,42.805,6.029,0.021,0.002,-0.006,102.0,107.0,100.0,13.4,1505.3,325.0,-0.7,1.8,2470.412,13.33,0.021,84.6
2020-05-29T02:10:03,42.805,6.029,0.001,0.009,-0.037,102.0,105.0,100.0,13.3,1505.3,324.9,-0.7,1.9,2470.339,13.33,0.009,6.3
2020-05-29T02:13:03,42.805,6.029,0.033,-0.004,0.012,100.0,104.0,101.0,13.4,1505.3,326.3,-0.7,1.9,2470.425,13.33,0.033,96.9
2020-05-29T02:19:03,42.805,6.029,0.007,0.022,-0.053,102.0,105.0,100.0,13.4,1505.3,324.2,-0.8,1.8,2470.407,13.31,0.023,17.6
2020-05-29T02:22:03,42.805,6.029,-0.01,-0.001,-0.049,100.0,105.0,102.0,13.4,1505.3,324.6,-0.7,1.8,2470.422,13.32,0.01,264.3
2020-05-29T02:25:03,42.805,6.029,0.007,0.005,0.0,103.0,105.0,101.0,13.4,1505.3,324.4,-0.7,1.9,2470.408,13.33,0.008,54.5
2020-05-29T02:28:03,42.805,6.029,0.004,0.005,-0.022,104.0,104.0,99.0,13.3,1505.3,328.0,-0.7,1.8,2470.404,13.33,0.006,38.7
2020-05-29T02:31:03,42.805,6.029,0.011,-0.007,-0.04,102.0,105.0,100.0,13.4,1505.3,326.8,-0.7,1.8,2470.367,13.33,0.013,122.5
2020-05-29T02:34:03,42.805,6.029,-0.016,0.013,-0.01,102.0,107.0,101.0,13.4,1505.3,328.5,-0.7,1.9,2470.392,13.33,0.02,309.1
2020-05-29T02:37:03,42.805,6.029,0.02,0.006,0.02,103.0,106.0,100.0,13.3,1505.3,324.7,-0.7,1.8,2470.385,13.33,0.02,73.3
2020-05-29T02:40:03,42.805,6.029,0.006,-0.01,-0.014,100.0,106.0,101.0,13.3,1505.4,324.8,-0.7,1.9,2470.378,13.34,0.011,149.0
2020-05-29T02:43:03,42.805,6.029,0.003,0.002,-0.058,101.0,107.0,100.0,13.4,1505.4,328.0,-0.7,1.8,2470.376,13.34,0.003,56.3
2020-05-29T02:46:03,42.805,6.029,0.015,-0.001,-0.029,101.0,106.0,101.0,13.4,1505.4,323.9,-0.7,1.9,2470.369,13.34,0.015,93.8
2020-05-29T02:49:03,42.805,6.029,0.009,0.018,-0.035,102.0,107.0,100.0,13.4,1505.4,325.4,-0.7,1.8,2470.368,13.34,0.02,26.6
2020-05-29T02:52:03,42.805,6.029,0.008,0.011,0.0,103.0,103.0,102.0,13.4,1505.4,325.8,-0.7,1.8,2470.305,13.34,0.013,36.0
2020-05-29T02:55:03,42.805,6.029,0.01,0.007,-0.018,102.0,105.0,101.0,13.4,1505.4,326.8,-0.7,1.8,2470.344,13.34,0.012,55.0
2020-05-29T02:58:03,42.805,6.029,0.015,0.001,-0.035,103.0,106.0,100.0,13.3,1505.4,327.0,-0.7,1.9,2470.345,13.34,0.015,86.2
2020-05-29T03:04:03,42.805,6.029,0.008,0.013,0.007,103.0,104.0,100.0,13.4,1505.3,326.6,-0.7,1.8,2470.357,13.32,0.015,31.6
2020-05-29T03:07:03,42.805,6.029,0.023,0.032,-0.009,101.0,105.0,100.0,13.3,1505.3,325.1,-0.7,1.8,2470.379,13.33,0.039,35.7
2020-05-29T03:10:03,42.805,6.029,0.031,-0.015,-0.024,103.0,105.0,101.0,13.3,1505.3,327.9,-0.7,1.8,2470.363,13.33,0.034,115.8
2020-05-29T03:13:03,42.805,6.029,0.029,0.017,0.001,103.0,105.0,101.0,13.3,1505.3,328.0,-0.7,1.8,2470.344,13.33,0.033,59.6
2020-05-29T03:16:03,42.805,6.029,0.007,0.022,-0.035,102.0,106.0,101.0,13.3,1505.4,326.8,-0.7,1.8,2470.321,13.34,0.023,17.6
2020-05-29T03:19:03,42.805,6.029,0.015,0.015,0.019,102.0,106.0,101.0,13.4,1505.4,327.1,-0.7,1.9,2470.357,13.34,0.021,45.0
2020-05-29T03:22:03,42.805,6.029,0.032,0.018,-0.021,102.0,105.0,100.0,13.3,1505.4,326.5,-0.7,1.9,2470.372,13.34,0.036,60.6
2020-05-29T03:25:03,42.805,6.029,0.02,0.021,-0.016,103.0,105.0,101.0,13.4,1505.4,323.8,-0.7,1.8,2470.302,13.34,0.028,43.6
2020-05-29T03:28:03,42.805,6.029,0.017,0.002,0.0,104.0,105.0,100.0,13.4,1505.4,325.3,-0.7,1.8,2470.326,13.34,0.017,83.3
2020-05-29T03:31:03,42.805,6.029,0.03,0.016,0.002,105.0,105.0,100.0,13.4,1505.4,324.7,-0.7,1.8,2470.309,13.34,0.034,61.9
2020-05-29T03:34:03,42.805,6.029,0.001,0.02,-0.016,102.0,106.0,99.0,13.3,1505.4,325.1,-0.7,1.8,2470.302,13.34,0.02,2.9
2020-05-29T03:37:03,42.805,6.029,0.022,0.008,-0.002,103.0,106.0,99.0,13.4,1505.4,328.5,-0.7,1.9,2470.353,13.35,0.023,70.0
2020-05-29T03:40:03,42.805,6.029,0.01,0.015,0.001,102.0,105.0,102.0,13.3,1505.4,326.1,-0.7,1.9,2470.294,13.35,0.018,33.7
2020-05-29T03:43:03,42.805,6.029,0.038,0.01,0.014,103.0,104.0,100.0,13.4,1505.4,327.9,-0.7,1.8,2470.338,13.35,0.039,75.3
2020-05-29T03:46:03,42.805,6.029,0.012,0.024,-0.001,102.0,106.0,100.0,13.3,1505.4,324.6,-0.7,1.9,2470.314,13.35,0.026,26.6
2020-05-29T03:49:03,42.805,6.029,0.0,0.013,-0.024,103.0,105.0,99.0,13.3,1505.4,324.2,-0.7,1.8,2470.329,13.35,0.013,0.0
2020-05-29T03:52:03,42.805,6.029,0.01,0.002,-0.028,103.0,105.0,99.0,13.3,1505.4,325.8,-0.6,1.8,2470.323,13.35,0.01,78.7
2020-05-29T03:55:03,42.805,6.029,0.019,0.009,-0.014,102.0,106.0,101.0,13.3,1505.4,326.9,-0.7,1.8,2470.294,13.35,0.021,64.7
2020-05-29T03:58:03,42.805,6.029,0.033,-0.018,-0.024,102.0,105.0,100.0,13.4,1505.4,325.2,-0.7,1.8,2470.302,13.35,0.037,118.6
2020-05-29T04:04:03,42.805,6.029,0.042,0.007,-0.001,103.0,105.0,99.0,13.4,1505.3,328.3,-0.7,1.8,2470.348,13.33,0.042,80.5
2020-05-29T04:07:03,42.805,6.029,0.009,0.004,-0.02,103.0,106.0,102.0,13.4,1505.4,327.2,-0.7,1.8,2470.302,13.34,0.009,66.0
2020-05-29T04:10:03,42.805,6.029,0.039,0.016,0.013,102.0,104.0,101.0,13.4,1505.4,326.1,-0.7,1.9,2470.289,13.34,0.042,67.7
2020-05-29T04:13:03,42.805,6.029,0.018,0.015,0.002,102.0,106.0,99.0,13.4,1505.4,325.2,-0.7,1.8,2470.276,13.34,0.023,50.2
2020-05-29T04:16:03,42.805,6.029,0.026,-0.003,0.027,102.0,106.0,101.0,13.3,1505.4,323.2,-0.7,1.8,2470.313,13.34,0.026,96.6
2020-05-29T04:19:03,42.805,6.029,0.013,0.013,-0.031,103.0,104.0,100.0,13.4,1505.4,326.0,-0.7,1.8,2470.314,13.35,0.018,45.0
2020-05-29T04:22:03,42.805,6.029,0.03,0.025,-0.015,102.0,106.0,101.0,13.4,1505.4,323.5,-0.7,1.9,2470.289,13.35,0.039,50.2
2020-05-29T04:25:03,42.805,6.029,0.016,0.015,0.002,104.0,106.0,101.0,13.4,1505.4,328.1,-0.7,1.8,2470.257,13.35,0.021,46.9
2020-05-29T04:28:03,42.805,6.029,0.005,0.023,0.025,102.0,106.0,100.0,13.4,1505.4,327.9,-0.7,1.9,2470.302,13.35,0.023,12.3
2020-05-29T04:31:03,42.805,6.029,0.029,0.02,-0.003,103.0,106.0,100.0,13.3,1505.4,327.4,-0.7,1.8,2470.268,13.35,0.035,55.4
2020-05-29T04:34:03,42.805,6.029,0.023,0.012,-0.029,103.0,106.0,100.0,13.3,1505.4,324.9,-0.7,1.8,2470.289,13.35,0.025,62.4
2020-05-29T04:37:03,42.805,6.029,0.03,0.019,0.022,102.0,105.0,100.0,13.4,1505.4,324.7,-0.7,1.8,2470.285,13.35,0.035,57.7
2020-05-29T04:40:03,42.805,6.029,0.018,0.012,-0.016,103.0,106.0,101.0,13.4,1505.4,326.9,-0.7,1.8,2470.247,13.35,0.021,56.3
2020-05-29T04:43:03,42.805,6.029,0.017,0.005,0.004,102.0,106.0,102.0,13.4,1505.4,327.0,-0.7,1.8,2470.303,13.35,0.017,73.6
2020-05-29T04:46:03,42.805,6.029,0.023,0.024,-0.007,102.0,105.0,102.0,13.4,1505.4,323.2,-0.7,1.8,2470.245,13.35,0.033,43.8
2020-05-29T04:49:03,42.805,6.029,0.011,0.018,-0.009,103.0,105.0,101.0,13.4,1505.4,328.2,-0.7,1.8,2470.247,13.35,0.021,31.4
2020-05-29T04:52:03,42.805,6.029,0.022,0.025,0.039,104.0,106.0,101.0,13.3,1505.4,326.5,-0.7,1.8,2470.286,13.35,0.033,41.3
2020-05-29T04:55:03,42.805,6.029,0.015,0.008,-0.019,103.0,105.0,101.0,13.3,1505.4,325.4,-0.7,1.8,2470.257,13.35,0.017,61.9
2020-05-29T04:58:03,42.805,6.029,0.034,0.001,-0.004,103.0,107.0,101.0,13.4,1505.4,325.3,-0.7,1.8,2470.286,13.35,0.034,88.3
2020-05-29T05:04:03,42.805,6.029,0.012,0.013,-0.032,101.0,106.0,100.0,13.3,1505.3,327.1,-0.7,1.8,2470.294,13.33,0.017,42.7
2020-05-29T05:07:03,42.805,6.029,0.02,0.006,-0.005,102.0,106.0,101.0,13.4,1505.3,324.4,-0.7,1.8,2470.264,13.33,0.02,73.3
2020-05-29T05:10:03,42.805,6.029,0.027,0.012,-0.012,102.0,106.0,100.0,13.3,1505.4,326.6,-0.7,1.8,2470.256,13.34,0.029,66.0
2020-05-29T05:13:03,42.805,6.029,0.006,0.003,-0.012,102.0,105.0,100.0,13.4,1505.4,325.9,-0.7,1.8,2470.288,13.34,0.006,63.4
2020-05-29T05:16:03,42.805,6.029,0.024,0.002,-0.019,104.0,107.0,101.0,13.3,1505.4,325.1,-0.7,1.8,2470.232,13.34,0.024,85.2
2020-05-29T05:19:03,42.805,6.029,0.015,0.017,0.006,103.0,106.0,102.0,13.3,1505.4,325.9,-0.7,1.9,2470.263,13.34,0.022,41.4
2020-05-29T05:22:03,42.805,6.029,0.027,0.008,0.019,103.0,106.0,101.0,13.4,1505.4,326.9,-0.7,1.8,2470.265,13.34,0.028,73.5
2020-05-29T05:25:03,42.805,6.029,0.013,0.0,-0.009,102.0,107.0,100.0,13.4,1505.4,324.1,-0.7,1.9,2470.276,13.35,0.013,90.0
2020-05-29T05:28:03,42.805,6.029,0.03,0.005,-0.02,103.0,106.0,100.0,13.4,1505.4,324.8,-0.7,1.9,2470.267,13.35,0.03,80.5
2020-05-29T05:31:03,42.805,6.029,0.022,0.007,0.003,103.0,105.0,100.0,13.4,1505.4,324.2,-0.7,1.8,2470.273,13.35,0.023,72.4
2020-05-29T05:34:03,42.805,6.029,0.021,0.0,-0.007,102.0,110.0,100.0,13.4,1505.4,326.4,-0.7,1.9,2470.269,13.35,0.021,90.0
2020-05-29T05:37:03,42.805,6.029,0.019,0.024,-0.041,102.0,105.0,100.0,13.3,1505.4,327.1,-0.7,1.9,2470.256,13.35,0.03,38.4
2020-05-29T05:40:03,42.805,6.029,0.015,0.017,0.001,102.0,105.0,101.0,13.4,1505.4,325.0,-0.7,1.8,2470.292,13.35,0.022,41.4
2020-05-29T05:43:03,42.805,6.029,0.024,0.007,-0.007,101.0,106.0,101.0,13.3,1505.4,323.4,-0.7,1.8,2470.248,13.35,0.025,73.7
2020-05-29T05:46:03,42.805,6.029,0.021,0.016,-0.01,102.0,104.0,101.0,13.3,1505.4,324.5,-0.7,1.8,2470.249,13.35,0.026,52.7
2020-05-29T05:49:03,42.805,6.029,0.025,0.014,0.011,103.0,105.0,102.0,13.4,1505.4,326.5,-0.7,1.9,2470.254,13.35,0.028,60.7
2020-05-29T05:52:03,42.805,6.029,0.007,0.021,0.024,105.0,107.0,101.0,13.4,1505.4,327.3,-0.7,1.8,2470.241,13.35,0.022,18.4
2020-05-29T05:55:03,42.805,6.029,0.053,0.009,0.013,103.0,106.0,100.0,13.4,1505.4,324.2,-0.7,1.8,2470.244,13.35,0.053,80.4
2020-05-29T05:58:03,42.805,6.029,0.026,0.029,-0.012,105.0,105.0,99.0,13.4,1505.4,326.7,-0.7,1.8,2470.248,13.35,0.038,41.9
2020-05-29T06:04:03,42.805,6.029,0.024,0.024,-0.018,103.0,106.0,101.0,13.4,1505.3,326.4,-0.7,1.8,2470.259,13.33,0.033,45.0
2020-05-29T06:07:03,42.805,6.029,0.015,0.008,-0.01,102.0,107.0,99.0,13.4,1505.4,323.4,-0.7,1.8,2470.257,13.34,0.017,61.9
2020-05-29T06:10:03,42.805,6.029,0.024,0.026,0.065,103.0,105.0,101.0,13.4,1505.4,323.5,-0.7,1.8,2470.256,13.34,0.035,42.7
2020-05-29T06:13:03,42.805,6.029,0.004,0.014,-0.004,104.0,105.0,100.0,13.4,1505.4,326.0,-0.7,1.8,2470.24,13.34,0.014,15.9
2020-05-29T06:16:03,42.805,6.029,0.025,-0.004,0.021,103.0,105.0,100.0,13.3,1505.4,326.6,-0.7,1.8,2470.275,13.35,0.025,99.1
2020-05-29T06:19:03,42.805,6.029,0.009,0.006,0.003,103.0,106.0,100.0,13.3,1505.4,325.7,-0.7,1.8,2470.276,13.35,0.01,56.3
2020-05-29T06:22:03,42.805,6.029,0.044,0.027,0.046,102.0,105.0,100.0,13.3,1505.4,325.6,-0.7,1.8,2470.234,13.34,0.051,58.5
2020-05-29T06:25:03,42.805,6.029,0.016,0.022,0.015,103.0,107.0,100.0,13.4,1505.4,326.5,-0.7,1.8,2470.252,13.34,0.027,36.0
2020-05-29T06:28:03,42.805,6.029,0.019,0.023,-0.004,103.0,107.0,99.0,13.4,1505.4,324.9,-0.7,1.8,2470.259,13.34,0.029,39.6
2020-05-29T06:31:03,42.805,6.029,0.025,-0.003,-0.012,103.0,106.0,101.0,13.4,1505.4,324.1,-0.7,1.8,2470.264,13.35,0.025,96.8
2020-05-29T06:34:03,42.805,6.029,0.015,0.007,0.0,103.0,105.0,101.0,13.4,1505.4,323.1,-0.7,1.9,2470.241,13.35,0.016,65.0
2020-05-29T06:37:03,42.805,6.029,0.04,0.005,-0.014,102.0,104.0,102.0,13.4,1505.4,326.1,-0.7,1.8,2470.215,13.34,0.04,82.9
2020-05-29T06:40:03,42.805,6.029,0.016,0.009,0.017,102.0,105.0,101.0,13.4,1505.4,323.3,-0.7,1.9,2470.195,13.34,0.018,60.6
2020-05-29T06:43:03,42.805,6.029,0.006,-0.006,-0.003,105.0,104.0,102.0,13.4,1505.4,325.4,-0.7,1.8,2470.167,13.34,0.008,135.0
2020-05-29T06:46:03,42.805,6.029,0.01,0.016,-0.016,101.0,107.0,102.0,13.4,1505.4,326.5,-0.7,1.8,2470.246,13.34,0.018,32.0
2020-05-29T06:49:03,42.805,6.029,0.006,0.011,-0.015,104.0,107.0,100.0,13.4,1505.4,325.1,-0.7,1.8,2470.256,13.34,0.012,28.6
2020-05-29T06:52:03,42.805,6.029,0.019,-0.007,0.017,104.0,106.0,101.0,13.4,1505.4,325.9,-0.7,1.8,2470.264,13.34,0.02,110.2
2020-05-29T06:55:03,42.805,6.029,0.03,-0.006,0.004,101.0,106.0,101.0,13.4,1505.4,327.0,-0.7,1.8,2470.227,13.34,0.03,101.3
2020-05-29T06:58:03,42.805,6.029,0.017,0.003,-0.028,103.0,107.0,100.0,13.4,1505.4,327.6,-0.7,1.8,2470.225,13.34,0.017,80.0
2020-05-29T07:04:03,42.805,6.029,-0.003,0.0,-0.007,103.0,105.0,102.0,13.4,1505.3,327.1,-0.7,1.8,2470.286,13.33,0.003,270.0
2020-05-29T07:07:03,42.805,6.029,0.012,0.011,-0.009,103.0,106.0,102.0,13.4,1505.3,326.6,-0.7,1.8,2470.271,13.33,0.016,47.5
2020-05-29T07:10:03,42.805,6.029,-0.005,0.014,0.012,102.0,106.0,101.0,13.4,1505.4,327.6,-0.7,1.9,2470.253,13.34,0.014,340.4
2020-05-29T07:13:03,42.805,6.029,0.033,0.016,0.001,103.0,104.0,101.0,13.4,1505.4,325.3,-0.7,1.9,2470.267,13.34,0.036,64.1
2020-05-29T07:16:03,42.805,6.029,0.01,0.01,-0.015,103.0,106.0,101.0,13.4,1505.4,327.7,-0.7,1.8,2470.287,13.34,0.014,45.0
2020-05-29T07:19:03,42.805,6.029,0.041,0.007,-0.008,102.0,108.0,102.0,13.4,1505.4,326.7,-0.7,1.8,2470.291,13.34,0.041,80.3
2020-05-29T07:22:03,42.805,6.029,0.018,0.011,-0.054,103.0,106.0,101.0,13.4,1505.4,328.0,-0.7,1.8,2470.255,13.34,0.021,58.6
2020-05-29T07:25:03,42.805,6.029,-0.001,0.011,-0.03,102.0,107.0,101.0,13.3,1505.4,324.5,-0.7,1.8,2470.227,13.34,0.011,354.8
2020-05-29T07:28:03,42.805,6.029,-0.01,-0.002,0.001,106.0,106.0,100.0,13.4,1505.4,327.2,-0.7,1.8,2470.233,13.34,0.01,258.7
2020-05-29T07:31:03,42.805,6.029,0.017,0.017,-0.042,103.0,107.0,101.0,13.4,1505.4,325.1,-0.7,1.8,2470.244,13.34,0.024,45.0
2020-05-29T07:34:03,42.805,6.029,0.016,-0.013,-0.038,103.0,107.0,101.0,13.4,1505.4,323.1,-0.7,1.8,2470.248,13.34,0.02,129.1
2020-05-29T07:37:03,42.805,6.029,-0.005,-0.001,-0.032,103.0,106.0,103.0,13.4,1505.4,325.7,-0.7,1.8,2470.203,13.34,0.005,258.7
2020-05-29T07:40:03,42.805,6.029,0.035,0.017,0.007,103.0,105.0,101.0,13.4,1505.4,326.1,-0.7,1.8,2470.213,13.34,0.038,64.1
2020-05-29T07:43:03,42.805,6.029,0.033,0.016,0.01,103.0,105.0,101.0,13.3,1505.4,324.9,-0.7,1.8,2470.267,13.34,0.036,64.1
2020-05-29T07:46:03,42.805,6.029,0.035,0.027,0.045,104.0,105.0,100.0,13.4,1505.4,324.1,-0.7,1.8,2470.239,13.34,0.044,52.3
2020-05-29T07:49:03,42.805,6.029,0.059,0.011,0.043,103.0,104.0,101.0,13.4,1505.3,326.2,-0.7,1.8,2470.236,13.33,0.06,79.4
2020-05-29T07:52:03,42.805,6.029,0.064,0.026,0.027,104.0,105.0,99.0,13.4,1505.3,323.4,-0.7,1.8,2470.235,13.33,0.069,67.9
2020-05-29T07:55:03,42.805,6.029,0.071,0.013,0.041,102.0,104.0,102.0,13.4,1505.3,324.6,-0.7,1.8,2470.25,13.33,0.072,79.6
2020-05-29T07:58:03,42.805,6.029,0.055,0.025,0.06,104.0,104.0,99.0,13.4,1505.3,327.0,-0.7,1.8,2470.274,13.33,0.06,65.6
2020-05-29T08:04:03,42.805,6.029,0.045,0.021,0.025,101.0,104.0,102.0,13.4,1505.3,327.3,-0.7,1.8,2470.262,13.31,0.049,65.0
2020-05-29T08:07:03,42.805,6.029,0.025,0.022,0.024,102.0,104.0,101.0,13.4,1505.3,325.0,-0.7,1.9,2470.263,13.32,0.033,48.7
2020-05-29T08:10:03,42.805,6.029,0.047,0.013,0.003,103.0,105.0,100.0,13.3,1505.3,328.2,-0.7,1.8,2470.276,13.32,0.048,74.5
2020-05-29T08:13:03,42.805,6.029,0.034,0.0,-0.015,104.0,104.0,100.0,13.3,1505.3,325.4,-0.7,1.8,2470.24,13.33,0.034,90.0
2020-05-29T08:16:03,42.805,6.029,0.041,0.014,0.046,102.0,105.0,102.0,13.3,1505.3,326.9,-0.7,1.9,2470.266,13.33,0.043,71.1
2020-05-29T08:19:03,42.805,6.029,0.029,0.02,0.011,102.0,103.0,101.0,13.4,1505.3,326.6,-0.7,1.8,2470.194,13.33,0.035,55.4
2020-05-29T08:22:03,42.805,6.029,0.009,0.022,0.0,102.0,103.0,101.0,13.4,1505.3,326.6,-0.7,1.8,2470.247,13.33,0.023,22.2
2020-05-29T08:25:03,42.805,6.029,0.043,0.014,0.005,102.0,105.0,100.0,13.4,1505.3,326.9,-0.7,1.8,2470.28,13.33,0.045,72.0
2020-05-29T08:28:03,42.805,6.029,0.019,0.023,0.01,103.0,104.0,101.0,13.3,1505.3,324.8,-0.7,1.9,2470.257,13.33,0.029,39.6
2020-05-29T08:31:03,42.805,6.029,0.021,0.005,-0.005,100.0,103.0,100.0,13.4,1505.3,324.7,-0.7,1.8,2470.254,13.33,0.021,76.6
2020-05-29T08:34:03,42.805,6.029,0.019,0.007,-0.021,102.0,104.0,100.0,13.4,1505.3,325.9,-0.7,1.8,2470.243,13.33,0.02,69.8
2020-05-29T08:37:03,42.805,6.029,0.046,0.009,0.023,102.0,104.0,101.0,13.4,1505.3,324.9,-0.7,1.8,2470.263,13.33,0.046,78.9
2020-05-29T08:40:03,42.805,6.029,0.083,0.012,0.046,102.0,104.0,100.0,13.3,1505.3,325.4,-0.7,1.8,2470.276,13.33,0.083,81.8
2020-05-29T08:43:03,42.805,6.029,0.054,0.009,0.009,101.0,104.0,102.0,13.3,1505.3,326.9,-0.7,1.8,2470.282,13.33,0.054,80.5
2020-05-29T08:46:03,42.805,6.029,0.086,0.035,0.053,104.0,105.0,100.0,13.3,1505.3,326.3,-0.7,1.8,2470.301,13.33,0.092,67.9
2020-05-29T08:49:03,42.805,6.029,0.069,0.003,0.032,101.0,106.0,100.0,13.4,1505.3,324.5,-0.7,1.8,2470.286,13.33,0.069,87.5
2020-05-29T08:52:03,42.805,6.029,0.068,0.005,0.009,103.0,103.0,101.0,13.4,1505.3,323.2,-0.7,1.8,2470.253,13.33,0.068,85.8
2020-05-29T08:55:03,42.805,6.029,0.065,0.018,0.044,102.0,105.0,102.0,13.4,1505.3,324.9,-0.7,1.8,2470.25,13.33,0.067,74.5
2020-05-29T08:58:03,42.805,6.029,0.045,0.01,0.021,103.0,106.0,101.0,13.4,1505.3,327.7,-0.7,1.8,2470.275,13.33,0.046,77.5
2020-05-29T09:04:03,42.805,6.029,0.034,0.004,0.002,104.0,105.0,100.0,13.4,1505.3,324.2,-0.7,1.8,2470.285,13.32,0.034,83.3
2020-05-29T09:07:03,42.805,6.029,0.052,0.013,0.044,104.0,105.0,101.0,13.4,1505.3,328.5,-0.8,1.8,2470.27,13.32,0.053,76.0
2020-05-29T09:10:03,42.805,6.029,0.048,0.032,0.049,102.0,104.0,101.0,13.4,1505.3,325.1,-0.7,1.8,2470.276,13.33,0.057,56.3
2020-05-29T09:13:03,42.805,6.029,0.062,0.018,0.041,101.0,106.0,102.0,13.4,1505.3,325.3,-0.7,1.8,2470.321,13.33,0.064,73.8
2020-05-29T09:16:03,42.805,6.029,0.068,0.023,0.039,103.0,105.0,100.0,13.3,1505.4,326.3,-0.7,1.8,2470.268,13.34,0.071,71.3
2020-05-29T09:19:03,42.805,6.029,0.052,0.011,0.052,104.0,104.0,100.0,13.4,1505.4,324.5,-0.7,1.9,2470.239,13.34,0.053,78.1
2020-05-29T09:22:03,42.805,6.029,0.085,0.027,0.066,103.0,105.0,102.0,13.4,1505.4,323.6,-0.7,1.8,2470.256,13.34,0.089,72.4
2020-05-29T09:25:03,42.805,6.029,0.022,0.013,-0.002,103.0,105.0,99.0,13.4,1505.4,328.0,-0.7,1.8,2470.287,13.34,0.025,59.4
2020-05-29T09:28:03,42.805,6.029,0.037,0.013,0.035,101.0,104.0,101.0,13.4,1505.4,325.6,-0.7,1.8,2470.283,13.34,0.039,70.6
2020-05-29T09:31:03,42.805,6.029,0.04,0.036,0.006,101.0,104.0,101.0,13.3,1505.4,323.7,-0.7,1.8,2470.257,13.34,0.053,48.0
2020-05-29T09:34:03,42.805,6.029,-0.04,0.019,-0.053,102.0,103.0,100.0,13.3,1505.4,324.7,-0.7,1.8,2470.275,13.34,0.044,295.4
2020-05-29T09:37:03,42.805,6.029,0.011,0.02,-0.001,102.0,104.0,101.0,13.4,1505.4,325.9,-0.7,1.8,2470.23,13.35,0.022,28.8
2020-05-29T09:40:03,42.805,6.029,-0.001,0.019,0.005,103.0,103.0,101.0,13.3,1505.4,325.0,-0.7,1.8,2470.244,13.35,0.019,357.0
2020-05-29T09:43:03,42.805,6.029,0.007,0.03,0.026,102.0,105.0,101.0,13.4,1505.4,325.3,-0.7,1.8,2470.276,13.35,0.03,13.1
2020-05-29T09:46:03,42.805,6.029,-0.031,0.015,-0.014,102.0,106.0,100.0,13.4,1505.4,325.5,-0.7,1.8,2470.281,13.34,0.034,295.8
2020-05-29T09:49:03,42.805,6.029,-0.011,0.034,0.005,103.0,106.0,101.0,13.4,1505.4,327.0,-0.7,1.9,2470.281,13.34,0.035,342.1
2020-05-29T09:52:03,42.805,6.029,0.031,0.026,0.023,103.0,104.0,101.0,13.4,1505.4,322.8,-0.7,1.8,2470.269,13.34,0.04,50.0
2020-05-29T09:55:03,42.805,6.029,-0.001,0.019,-0.016,104.0,105.0,101.0,13.3,1505.4,325.8,-0.7,1.9,2470.236,13.34,0.019,357.0
2020-05-29T09:58:03,42.805,6.029,0.01,-0.011,-0.025,104.0,104.0,102.0,13.4,1505.4,325.5,-0.7,1.8,2470.242,13.34,0.014,137.7
2020-05-29T10:04:03,42.805,6.029,0.016,0.017,-0.007,101.0,105.0,101.0,13.4,1505.3,324.7,-0.7,1.8,2470.304,13.32,0.023,43.3
2020-05-29T10:07:03,42.805,6.029,-0.024,0.014,-0.032,103.0,107.0,101.0,13.4,1505.3,324.4,-0.7,1.8,2470.285,13.33,0.027,300.3
2020-05-29T10:10:03,42.805,6.029,-0.001,0.007,0.024,102.0,105.0,100.0,13.3,1505.3,327.9,-0.7,1.9,2470.29,13.33,0.007,351.9